| time (UTC) | temp F | wind direction | speed knots | gust knots | rain 1hr in | rain 24hr in | rain mn in | humidity % | barometer mb |
| 20260504045936 | 46 | 48 | 0.9 | 2.6 | 0.00 | 0.00 | 0.00 | 81 | 1012.2 |
| 20260504044425 | 46 | 87 | 0.0 | 1.7 | 0.00 | 0.00 | 0.00 | 81 | 1012.2 |
| 20260504042935 | 46 | 33 | 0.9 | 3.5 | 0.00 | 0.00 | 0.00 | 80 | 1012.1 |
| 20260504041426 | 47 | 147 | 0.0 | 3.5 | 0.00 | 0.00 | 0.00 | 80 | 1012.2 |
| 20260504035936 | 47 | 57 | 0.9 | 4.3 | 0.00 | 0.00 | 0.00 | 80 | 1012.2 |
| 20260504034425 | 47 | 23 | 0.9 | 2.6 | 0.00 | 0.00 | 0.00 | 80 | 1012.3 |
| 20260504032938 | 47 | 65 | 0.0 | 0.9 | 0.00 | 0.00 | 0.00 | 80 | 1012.4 |
| 20260504031430 | 47 | 66 | 0.0 | 1.7 | 0.00 | 0.00 | 0.00 | 80 | 1012.4 |
| 20260504025922 | 47 | 38 | 0.0 | 3.5 | 0.00 | 0.00 | 0.00 | 80 | 1012.3 |
| 20260504024451 | 47 | 33 | 0.0 | 2.6 | 0.00 | 0.00 | 0.00 | 80 | 1012.4 |
| 20260504022920 | 47 | 51 | 0.0 | 4.3 | 0.00 | 0.00 | 0.00 | 80 | 1012.4 |
| 20260504021431 | 47 | 65 | 0.0 | 2.6 | 0.00 | 0.00 | 0.00 | 80 | 1012.3 |
| 20260504015922 | 48 | 37 | 0.9 | 3.5 | 0.00 | 0.00 | 0.00 | 79 | 1012.4 |
| 20260504014431 | 48 | 64 | 0.0 | 2.6 | 0.00 | 0.00 | 0.00 | 79 | 1012.5 |
| 20260504012943 | 47 | 46 | 0.0 | 1.7 | 0.00 | 0.00 | 0.00 | 80 | 1012.5 |
| 20260504011434 | 48 | 87 | 0.9 | 3.5 | 0.00 | 0.00 | 0.00 | 80 | 1012.6 |
| 20260504005939 | 48 | 51 | 0.9 | 3.5 | 0.00 | 0.00 | 0.00 | 79 | 1012.7 |
| 20260504004447 | 48 | 59 | 0.9 | 2.6 | 0.00 | 0.00 | 0.00 | 79 | 1012.6 |
| 20260504003000 | 48 | 43 | 0.0 | 1.7 | 0.00 | 0.00 | 0.00 | 81 | 1012.8 |
| 20260504001430 | 48 | 52 | 0.0 | 0.9 | 0.00 | 0.00 | 0.00 | 82 | 1012.8 |
| 20260503235942 | 48 | 64 | 0.0 | 2.6 | 0.00 | 0.00 | 0.00 | 80 | 1012.7 |
| 20260503234431 | 48 | 48 | 0.0 | 1.7 | 0.00 | 0.00 | 0.00 | 81 | 1012.8 |
| 20260503232923 | 48 | 34 | 0.0 | 2.6 | 0.00 | 0.00 | 0.00 | 81 | 1012.7 |
| 20260503231453 | 48 | 30 | 0.9 | 3.5 | 0.00 | 0.00 | 0.00 | 80 | 1012.9 |
| 20260503225925 | 48 | 64 | 0.0 | 2.6 | 0.00 | 0.00 | 0.00 | 80 | 1012.8 |
| 20260503224437 | 48 | 49 | 0.0 | 3.5 | 0.00 | 0.00 | 0.00 | 79 | 1012.9 |
| 20260503222927 | 48 | 54 | 0.0 | 5.2 | 0.00 | 0.00 | 0.00 | 79 | 1012.9 |
| 20260503221439 | 49 | 131 | 0.0 | 2.6 | 0.00 | 0.00 | 0.00 | 79 | 1012.9 |
| 20260503215929 | 48 | 122 | 0.9 | 5.2 | 0.00 | 0.00 | 0.00 | 78 | 1013.0 |
| 20260503214420 | 48 | 97 | 0.0 | 1.7 | 0.00 | 0.00 | 0.00 | 80 | 1012.8 |
| 20260503212932 | 49 | 128 | 0.9 | 2.6 | 0.00 | 0.00 | 0.00 | 79 | 1012.8 |
| 20260503211424 | 49 | 106 | 0.9 | 6.1 | 0.00 | 0.00 | 0.00 | 77 | 1012.9 |
| 20260503205937 | 49 | 129 | 2.6 | 7.8 | 0.00 | 0.00 | 0.00 | 75 | 1012.7 |
| 20260503204427 | 49 | 51 | 0.9 | 7.0 | 0.00 | 0.00 | 0.00 | 76 | 1012.8 |
| 20260503202937 | 49 | 51 | 0.9 | 5.2 | 0.00 | 0.00 | 0.00 | 75 | 1012.5 |
| 20260503201427 | 50 | 29 | 2.6 | 9.6 | 0.00 | 0.00 | 0.00 | 74 | 1012.2 |
| 20260503195935 | 49 | 142 | 3.5 | 7.8 | 0.00 | 0.00 | 0.00 | 74 | 1011.9 |
| 20260503194428 | 49 | 11 | 1.7 | 7.0 | 0.00 | 0.00 | 0.00 | 73 | 1011.8 |
| 20260503192933 | 50 | 36 | 0.9 | 3.5 | 0.00 | 0.00 | 0.00 | 73 | 1011.7 |
| 20260503191427 | 50 | 57 | 1.7 | 6.1 | 0.00 | 0.00 | 0.00 | 72 | 1011.4 |
| 20260503185937 | 51 | 34 | 1.7 | 6.1 | 0.00 | 0.00 | 0.00 | 72 | 1011.3 |
| 20260503184444 | 51 | 58 | 0.0 | 5.2 | 0.00 | 0.00 | 0.00 | 70 | 1011.3 |
| 20260503182936 | 52 | 37 | 0.9 | 4.3 | 0.00 | 0.00 | 0.00 | 69 | 1011.2 |
| 20260503181426 | 53 | 134 | 2.6 | 11.3 | 0.00 | 0.00 | 0.00 | 67 | 1011.1 |
| 20260503175936 | 54 | 47 | 0.9 | 3.5 | 0.00 | 0.00 | 0.00 | 66 | 1011.4 |
| 20260503174427 | 56 | 108 | 0.9 | 5.2 | 0.00 | 0.00 | 0.00 | 62 | 1011.2 |
| 20260503172938 | 58 | 23 | 0.0 | 2.6 | 0.00 | 0.00 | 0.00 | 58 | 1010.7 |
| 20260503171427 | 59 | 229 | 1.7 | 4.3 | 0.00 | 0.00 | 0.00 | 57 | 1010.4 |
| 20260503081456 | 49 | 215 | 0.0 | 0.9 | 0.00 | 0.71 | 0.00 | 97 | 1014.0 |
| 20260503071423 | 46 | 215 | 0.0 | 0.9 | 0.00 | 0.94 | 0.00 | 97 | 1014.1 |
| 20260503054428 | 45 | 215 | 0.0 | 0.0 | 0.00 | 1.50 | 0.00 | 97 | 1013.6 |
| 20260503052938 | 46 | 215 | 0.0 | 0.0 | 0.00 | 1.50 | 0.00 | 97 | 1013.5 |